Location: Beetenbrück
(52.8113°N, 9.5946°E)
Time: 22:27:16
(UTC+00:00)

Cosmos 1802 Rocket - Pass Details

Date: 14 April 2026
Orbit: 952 x 1012 km, 82.9° (Epoch: 12 May)

Event Time Altitude Azimuth Distance (km) Brightness Sun altitude
Exits shadow 23:19:49 71° 204° (SSW) 1,049 3.9 -27.5°
Maximum altitude 23:20:33 85° 279° (W) 1,004 3.9 -27.5°
Drops below altitude 10° 23:26:53 10° 10° (N) 2,748 7.3 -27.5°
Sets 23:29:24 0° 11° (N) 3,691 8.3 -27.5°
